Simultaneous Nadir Overpasses (SNOs) Predictions

Prediction of SNOs between GOES-14 and AQUA Satellite Orbit:

Table of predicted SNOs for the next 14.0 days since TLE Epoch: 12/24/2022
Index Date Time (GOES-14) GOES-14 Lat,Lon AQUA Lat,Lon Distance(km) Time Diff (sec)
1 12/24/2022 08:21:24 -0.06,-104.44 -0.98,-100.04 499.95 80
2 12/24/2022 20:42:34 0.07,-104.06 -0.14,-105.16 125.43 80
3 12/26/2022 20:32:13 0.07,-104.06 0.50,-101.99 235.93 80
4 12/27/2022 08:53:17 -0.08,-104.46 0.51,-107.10 301.55 80
5 12/29/2022 08:37:36 -0.07,-104.47 -0.16,-103.93 60.49 80
6 12/31/2022 08:24:35 -0.07,-104.48 -0.85,-100.76 422.94 80
7 12/31/2022 20:45:45 0.08,-104.09 -0.30,-105.88 203.32 80
8 01/02/2023 20:35:23 0.07,-104.11 0.37,-102.71 159.69 80
9 01/03/2023 08:53:47 -0.07,-104.51 0.63,-107.82 376.45 80
10 01/05/2023 08:43:25 -0.06,-104.53 -0.06,-104.65 13.76 80
